DW2741 Weather Reports


time (UTC)temp
F
wind
direction
speed
knots
gust
knots
rain 1hr
in
rain 24hr
in
rain mn
in
humidity
%
barometer
mb
20260504140108 61 244 0.0 0.0 0.00 0.00 0.00 74 1016.8
20260504090116 44 263 0.0 0.0 0.00 0.00 0.00 90 1015.8
20260504081512 44 263 0.0 0.0 0.00 0.00 0.00 88 1015.7
20260504050010 47 263 0.0 0.0 0.00 0.00 0.00 84 1016.9
20260504044527 47 263 0.0 0.0 0.00 0.00 0.00 82 1016.9
20260504043050 47 263 0.0 0.0 0.00 0.00 0.00 82 1017.0
20260504041549 48 263 0.0 0.0 0.00 0.00 0.00 82 1017.0
20260504040032 48 263 0.0 0.0 0.00 0.00 0.00 80 1017.2
20260504034536 49 263 0.0 0.0 0.00 0.00 0.00 81 1017.4
20260504033010 49 263 0.0 0.0 0.00 0.00 0.00 79 1017.4
20260504031507 50 263 0.0 0.0 0.00 0.00 0.00 79 1017.7
20260504030048 50 263 0.0 0.0 0.00 0.00 0.00 78 1017.7
20260504024547 51 263 0.0 0.0 0.00 0.00 0.00 76 1017.6
20260504023024 52 263 0.0 0.0 0.00 0.00 0.00 75 1017.4
20260504021531 52 263 0.0 0.0 0.00 0.00 0.00 75 1017.2
20260504020005 53 263 0.0 0.0 0.00 0.00 0.00 74 1017.0
20260504014603 54 263 0.0 0.0 0.00 0.00 0.00 72 1016.9
20260504013042 55 263 0.0 0.0 0.00 0.00 0.00 69 1016.6
20260504011534 57 263 0.0 0.0 0.00 0.00 0.00 67 1016.7
20260504010013 59 263 0.0 0.0 0.00 0.00 0.00 64 1016.6
20260504004511 61 263 0.0 0.0 0.00 0.00 0.00 59 1016.7
20260504003051 63 263 0.0 0.0 0.00 0.00 0.00 54 1016.6
20260504001608 66 263 0.0 0.0 0.00 0.00 0.00 48 1016.6
20260504000031 67 263 0.0 0.0 0.00 0.00 0.00 45 1016.5
20260503234533 67 273 0.0 0.0 0.00 0.00 0.00 44 1016.7
20260503233011 67 257 0.0 0.0 0.00 0.00 0.00 45 1016.7
20260503231510 68 257 0.0 3.5 0.00 0.00 0.00 44 1016.8
20260503230052 68 244 1.7 4.3 0.00 0.00 0.00 43 1016.8
20260503224551 68 269 1.7 5.2 0.00 0.00 0.00 42 1016.9
20260503223034 69 261 0.0 3.5 0.00 0.00 0.00 44 1016.9
20260503221539 69 267 0.0 3.5 0.00 0.00 0.00 43 1017.0
20260503220012 69 236 0.0 3.5 0.00 0.00 0.00 42 1017.2
20260503214513 69 276 0.0 2.6 0.00 0.00 0.00 43 1017.4
20260503213052 69 263 0.0 6.1 0.00 0.00 0.00 43 1017.4
20260503211604 69 250 0.0 7.0 0.00 0.00 0.00 44 1017.5
20260503210030 69 258 0.0 6.1 0.00 0.00 0.00 43 1017.7
20260503204528 68 253 0.0 6.1 0.00 0.00 0.00 44 1017.9
20260503203009 68 271 1.7 7.8 0.00 0.00 0.00 46 1018.1
20260503201518 67 271 0.0 7.8 0.00 0.00 0.00 45 1018.3
20260503200046 67 284 0.9 7.0 0.00 0.00 0.00 45 1018.6
20260503194548 67 257 4.3 8.7 0.00 0.00 0.00 44 1018.9
20260503193024 67 281 2.6 7.0 0.00 0.00 0.00 44 1019.2
20260503191525 66 288 0.0 6.1 0.00 0.00 0.00 47 1019.4
20260503190001 66 269 0.0 1.7 0.00 0.00 0.00 46 1019.7
20260503184600 66 232 0.0 0.0 0.00 0.00 0.00 47 1019.9
20260503183043 66 260 0.0 0.0 0.00 0.00 0.00 49 1020.0
20260503181613 66 207 0.0 0.0 0.00 0.00 0.00 53 1020.0
20260503180020 65 229 0.0 0.0 0.00 0.00 0.00 54 1020.1
20260503174520 65 293 0.0 0.0 0.00 0.00 0.00 52 1020.4
20260503173102 65 226 0.0 0.0 0.00 0.00 0.00 52 1020.5
20260503171556 64 259 0.0 0.0 0.00 0.00 0.00 53 1020.7